﻿Дата;Google;AdRiver
2020-09-17;1;0
2020-03-01;1;0
2020-02-24;2;0
2020-02-23;2;0
2020-02-17;1;0
2020-02-16;1;0
2020-02-07;1;0
2020-01-31;1;0
2020-01-26;1;0
2020-01-25;1;0
2020-01-19;1;0
2020-01-17;1;0
2020-01-12;2;0
2020-01-08;2;0
2019-12-28;1;0
2019-12-27;1;0
2019-12-25;1;0
2019-12-23;2;0
2019-12-22;3;0
2019-12-21;3;0
2019-12-18;1;0
2019-12-17;1;0
2019-12-16;2;0
2019-12-14;1;0
2019-12-13;2;0
2019-12-12;2;0
2019-12-11;1;0
2019-12-08;6;0
2019-12-07;1;0
2019-12-03;1;0
2019-12-01;2;0
2019-11-30;4;0
2019-11-24;1;0
2019-11-22;3;0
2019-11-21;1;0
2019-11-20;1;0
2019-10-16;3;0
2019-10-06;4;0
2019-08-20;1;0
2019-07-11;1;0
2019-07-05;1;0
2019-07-03;3;0
2019-06-22;3;0
2019-06-08;3;0
2019-06-02;1;0
2019-05-30;4;0
2019-05-27;3;0
2019-05-21;4;0
2019-05-17;4;0
2019-05-16;4;0
2019-05-13;4;0
2019-05-12;3;0
2019-04-21;1;0
2019-04-17;1;0
2019-04-08;1;0
2019-04-03;1;0
2019-03-30;1;0
2019-03-18;1;0
2019-03-13;1;0
2019-03-09;1;0
2019-03-08;2;0
2019-03-07;3;0
2019-03-06;3;0
2019-03-01;3;0
2019-02-27;1;0
2019-02-26;2;0
2019-02-23;1;0
2019-02-14;1;0
2019-02-12;1;0
2019-02-10;3;0
2019-02-07;1;0
2019-02-04;1;0
2019-01-30;1;0
2019-01-26;1;0
2019-01-14;1;0
2019-01-12;1;0
2019-01-03;1;0
2019-01-02;1;0
2018-12-27;1;0
2018-12-24;1;0
2018-12-21;1;0
2018-12-20;1;0
2018-12-10;1;0
2018-12-09;1;0
2018-12-08;3;0
2018-11-16;1;0
2018-11-15;3;0
2018-11-12;1;0
2018-11-08;1;0
2018-11-04;1;0
2018-10-30;1;0
2018-10-26;1;0
2018-10-21;3;0
2018-10-09;5;0
2018-10-08;1;0
2018-10-07;2;0
2018-10-06;1;0
2018-09-19;1;0
2018-05-22;3;0
2018-05-13;3;0
2018-05-06;1;0
2018-05-02;3;0
2018-04-03;3;0
2018-03-30;3;0
2018-03-25;1;0
2018-03-18;2;0
2018-02-24;1;0
2018-02-18;1;0
2017-09-15;1;0
2017-09-13;1;0
2017-08-26;1;0
2017-08-20;1;0
2017-08-17;1;0
2017-08-16;3;0
2017-08-15;7;0
2017-08-14;5;0
2017-08-13;8;0
2017-08-12;5;0
2017-08-11;9;0
2017-08-10;10;0
2017-08-09;15;0
2017-08-08;3;0
2017-08-07;8;0
2017-08-06;10;0
2017-08-05;2;0
2017-08-04;8;0
2017-08-03;8;0
2017-08-02;3;0
2017-08-01;7;0
2017-07-29;8;0
2017-07-28;11;0
2017-07-27;2;0
2017-07-26;4;0
2017-07-25;4;0
2017-07-24;6;0
2017-07-23;10;0
2017-07-22;4;0
2017-07-21;2;0
2017-07-20;6;0
2017-07-19;3;0
2017-07-16;11;0
2017-07-15;3;0
2017-07-14;2;0
2017-07-13;5;0
2017-07-12;9;0
2017-07-11;9;0
2017-07-10;5;0
2017-07-09;6;0
2017-07-08;2;0
2017-07-07;2;0
2017-07-06;4;0
2017-07-05;9;0
2017-07-04;7;0
2017-07-03;4;0
2017-07-02;6;0
2017-07-01;5;0
2017-06-30;4;0
2017-06-29;2;0
2017-06-28;1;0
2017-06-26;4;0
2017-06-25;4;0
2017-06-16;1;0
2017-05-20;1;0
2017-05-12;1;0
2017-03-26;1;0
2017-03-15;1;0
2017-03-08;1;0
2017-02-24;1;0
2017-02-23;2;0
2017-02-16;3;0
2017-02-15;7;0
2017-02-14;5;0
2017-02-13;8;0
2017-02-12;11;0
2017-02-11;5;0
2017-02-10;4;0
2017-02-09;3;0
2017-02-08;9;0
2017-02-07;8;0
2017-02-06;3;0
2017-02-05;8;0
2017-02-04;9;0
2017-02-03;1;0
2017-01-25;1;0
2017-01-23;2;0
2017-01-22;2;0
2017-01-20;1;0
2017-01-19;3;0
2017-01-18;2;0
2017-01-17;2;0
2017-01-16;4;0
2017-01-15;1;0
2017-01-14;2;0
2017-01-12;1;0
2016-12-20;1;0
2016-12-15;1;0
2016-12-12;1;0
2016-12-06;1;0
2016-11-24;2;0
2016-11-23;1;0
2016-11-21;2;0
2016-11-20;2;0
2016-11-17;1;0
2016-11-16;2;0
2016-11-12;1;0
2016-11-11;1;0
2016-11-10;1;0
2016-11-09;2;0
2016-11-06;4;0
2016-11-05;2;0
2016-11-01;1;0
2016-10-30;2;0
2016-10-27;1;0
2016-10-26;1;0
2016-10-22;1;0
2016-10-19;2;0
2016-10-18;1;0
2016-10-13;1;0
2016-10-12;2;0
2016-10-11;1;0
2016-10-01;1;0
2016-09-01;1;0
2016-08-19;1;0
2016-08-02;2;0
2016-07-31;1;0
2016-07-24;1;0
2016-07-20;2;0
2016-07-17;4;0
2016-07-16;1;0
2016-07-15;1;0
2016-07-12;1;0
2016-07-10;1;0
2016-07-09;1;0
2016-07-08;1;0
2016-07-03;1;0
2016-07-02;1;0
2016-06-28;1;0
2016-06-27;1;0
2016-06-26;1;0
2016-06-23;1;0
2016-06-22;1;0
2016-06-19;1;0
2016-06-11;1;0
2016-06-10;1;0
2016-06-06;3;0
2016-06-05;3;0
2016-05-31;1;0
2016-05-30;2;0
2016-05-27;1;0
2016-05-26;1;0
2016-05-23;1;0
2016-05-18;2;0
2016-05-16;1;0
2016-05-15;1;0
2016-05-11;1;0
2016-05-10;1;0
2016-05-09;2;0
2016-05-08;3;0
2016-05-07;2;0
2016-05-06;7;0
2016-05-05;2;0
2016-05-03;5;0
2016-05-02;6;0
2016-05-01;2;0
2016-04-30;7;0
2016-04-29;2;0
2016-04-28;6;0
2016-04-27;10;0
2016-04-26;5;0
2016-04-25;3;0
2016-04-24;6;0
2016-04-23;2;0
2016-04-22;1;0
2016-04-21;3;0
2016-04-20;3;0
2016-04-19;1;0
2016-04-18;4;0
2016-04-17;3;0
2016-04-16;3;0
2016-04-15;5;0
2016-04-14;7;0
2016-04-13;8;0
2016-04-12;11;0
2016-04-11;10;0
2016-04-10;8;0
2016-04-09;7;0
2016-04-08;6;0
2016-04-07;8;0
2016-04-06;6;0
2016-04-05;9;0
2016-04-04;7;0
2016-04-03;4;0
2016-04-02;4;0
2016-03-31;2;0
2016-03-30;1;0
2016-03-28;3;0
2016-03-27;5;0
2016-03-26;1;0
2016-03-23;0;1
2016-03-21;0;1
2016-03-16;1;0
2016-03-15;1;0
2016-03-13;1;0
2016-03-12;1;0
2016-03-11;1;0
2016-03-10;1;0
2016-03-09;1;0
2016-03-06;3;0
2016-03-05;2;0
2016-03-04;1;0
2016-03-03;2;0
2016-03-02;1;0
2016-03-01;1;0
2016-02-25;1;0
2016-02-24;0;1
2016-02-23;1;0
2016-02-22;2;0
2016-02-21;4;0
2016-02-20;4;0
2016-02-19;1;0
2016-02-18;4;0
2016-02-17;1;0
2016-02-14;2;0
2016-02-12;2;0
2016-02-11;1;0
2016-02-09;1;0
2016-02-07;3;0
2016-02-06;1;0
2016-02-03;3;0
2016-02-02;3;0
2016-02-01;4;0
2016-01-31;1;0
2016-01-29;3;0
2016-01-28;3;0
2016-01-27;1;0
2016-01-26;3;0
2016-01-24;6;0
2016-01-23;2;0
2016-01-22;2;0
2016-01-21;2;0
2016-01-20;2;0
2016-01-18;3;0
2016-01-17;1;0
2016-01-16;5;0
2016-01-15;1;0
2016-01-14;2;0
2016-01-13;1;0
2016-01-12;5;0
2016-01-11;4;0
2016-01-10;5;0
2016-01-09;1;0
2016-01-08;6;0
2016-01-07;5;0
2016-01-06;9;0
2016-01-05;5;0
2016-01-04;4;0
2016-01-03;6;0
2015-12-30;1;0
2015-12-29;1;0
2015-12-27;1;0
2015-12-20;1;0
2015-12-12;1;0
2015-11-18;1;0
2015-11-16;1;0
2015-11-11;1;0
2015-11-10;4;0
2015-11-09;3;0
2015-11-08;1;0
2015-11-07;2;0
2015-11-06;2;0
2015-11-04;1;0
2015-11-03;2;0
2015-10-31;1;0
2015-10-30;1;0
2015-10-28;1;0
2015-10-27;1;0
2015-10-23;2;0
2015-10-22;1;0
2015-10-20;1;0
2015-10-19;1;0
2015-10-18;2;0
2015-10-13;1;0
2015-10-12;4;0
2015-10-11;7;0
2015-10-10;1;0
2015-10-09;2;0
2015-10-06;2;0
2015-10-05;1;0
2015-10-04;3;0
2015-10-03;3;0
2015-10-01;3;0
2015-09-30;1;0
2015-09-29;2;0
2015-09-28;2;0
2015-09-27;2;0
2015-09-26;2;0
2015-09-25;2;0
2015-09-23;1;0
2015-09-22;5;0
2015-09-21;5;0
2015-09-20;9;0
2015-09-19;8;0
2015-09-18;3;0
2015-09-17;3;0
2015-09-16;5;0
2015-09-15;5;0
2015-09-14;2;0
2015-09-13;6;0
2015-09-12;3;0
2015-09-11;2;0
2015-09-10;1;0
2015-09-09;4;0
2015-09-08;3;0
2015-09-07;1;0
2015-09-06;1;0
2015-09-05;1;0
2015-09-04;5;0
2015-09-02;2;0
2015-09-01;2;0
2015-08-31;1;0
2015-08-30;3;0
2015-08-29;1;0
2015-08-28;1;0
2015-08-27;1;0
2015-08-26;2;0
2015-08-25;2;0
2015-08-24;2;0
2015-08-23;1;0
2015-08-22;1;0
2015-08-21;1;0
2015-08-20;1;0
2015-08-18;2;0
2015-08-16;3;0
2015-08-15;1;0
2015-08-14;3;0
2015-08-13;1;0
2015-08-11;2;0
2015-08-06;1;0
2015-08-04;2;0
2015-08-03;1;0
2015-07-31;1;0
2015-07-30;1;0
2015-07-29;1;0
2015-07-28;3;0
2015-07-25;1;0
2015-07-24;2;0
2015-07-23;1;0
2015-07-22;1;0
2015-07-21;1;0
2015-07-20;1;0
2015-07-19;5;0
2015-07-18;3;0
2015-07-17;5;0
2015-07-16;2;0
2015-07-15;5;0
2015-07-14;3;0
2015-07-13;3;0
2015-07-12;1;0
2015-07-11;8;0
2015-07-10;5;0
2015-07-09;5;0
2015-07-08;2;0
2015-07-07;3;0
2015-07-06;1;0
2015-07-05;1;0
2015-07-04;1;0
2015-07-02;1;0
2015-07-01;1;0
2015-06-30;3;0
2015-06-29;2;0
2015-06-27;3;0
2015-06-26;1;0
2015-06-25;1;0
2015-06-21;4;0
2015-06-20;3;0
2015-06-19;7;0
2015-06-18;1;0
2015-06-17;3;0
2015-06-15;2;0
2015-06-14;1;0
2015-06-11;1;0
2015-06-10;2;0
2015-06-09;1;0
2015-06-08;1;0
2015-06-05;1;0
2015-06-04;1;0
2015-06-03;1;0
2015-05-27;1;0
2015-05-25;1;0
2015-05-23;1;0
2015-05-22;1;0
2015-05-21;2;0
2015-05-20;1;0
2015-05-17;2;0
2015-05-15;1;0
2015-05-14;1;0
2015-05-11;1;0
2015-05-08;2;0
2015-05-05;2;0
2015-05-03;2;0
2015-05-02;1;0
2015-05-01;1;0
2015-04-28;1;0
2015-04-23;1;0
2015-04-21;1;0
2015-04-15;1;0
2015-04-14;1;0
2015-04-10;1;0
2015-04-09;1;0
2015-04-08;1;0
2015-04-07;1;0
2015-04-01;1;0
2015-03-31;1;0
2015-03-30;2;0
2015-03-27;1;0
2015-03-21;1;0
2015-03-19;1;0
2015-03-18;1;0
2015-03-16;1;0
2015-03-02;1;0
2015-03-01;1;0
2015-02-25;1;0
2015-02-04;7;0
2015-02-03;6;0
2015-02-02;5;0
2015-02-01;6;0
2015-01-31;8;0
2015-01-30;5;1
2015-01-29;16;0
2015-01-28;11;0
2015-01-27;22;0
2015-01-26;18;0
2015-01-25;12;0
2015-01-24;11;0
2015-01-23;9;0
2015-01-22;18;0
2015-01-21;5;0
2015-01-20;5;0
2015-01-19;21;0
2015-01-18;17;0
2015-01-17;11;0
2015-01-16;10;0
2015-01-15;19;0
2015-01-14;16;0
2015-01-13;9;0
2015-01-12;19;0
2015-01-11;21;0
2015-01-10;26;0
2015-01-09;22;0
2015-01-08;34;0
2015-01-07;9;0
2015-01-06;10;0
2015-01-05;18;0
2015-01-04;15;0
2015-01-03;12;0
2015-01-02;18;0
2015-01-01;9;0
2014-12-31;1;0
2014-12-30;8;0
2014-12-29;4;0
2014-12-28;4;0
2014-12-27;1;0
2014-12-26;2;0
2014-12-25;4;0
2014-12-24;3;0
2014-12-23;5;0
2014-12-22;5;0
2014-12-21;11;0
2014-12-20;7;0
2014-12-19;2;0
2014-12-18;8;0
2014-12-17;6;0
2014-12-16;6;0
2014-12-15;5;0
2014-12-14;10;0
2014-12-13;4;0
2014-12-12;4;0
2014-12-11;5;0
2014-12-10;4;0
2014-12-09;3;0
2014-12-08;7;0
2014-12-07;7;0
2014-12-06;4;0
2014-12-05;4;0
2014-12-04;5;0
2014-12-03;5;0
2014-12-02;2;0
2014-12-01;3;0
2014-11-30;7;0
2014-11-29;1;0
2014-11-28;3;0
2014-11-27;2;0
2014-11-26;2;0
2014-11-25;2;0
2014-11-24;4;0
2014-11-23;4;0
2014-11-20;1;0
2014-11-18;5;0
2014-11-17;5;0
2014-11-15;2;0
2014-11-14;2;0
2014-11-13;2;0
2014-11-12;5;0
2014-11-11;3;0
2014-11-10;2;0
2014-11-08;2;0
2014-11-07;1;0
2014-11-06;6;0
2014-11-05;4;0
2014-11-04;1;0
2014-11-03;2;0
2014-11-02;4;0
2014-11-01;2;0
2014-10-31;1;0
2014-10-30;2;0
2014-10-29;5;0
2014-10-28;1;0
2014-10-27;2;0
2014-10-26;4;0
2014-10-25;1;0
2014-10-24;2;0
2014-10-23;3;0
2014-10-22;1;0
2014-10-21;1;0
2014-10-20;5;0
2014-10-18;2;0
2014-10-16;4;0
2014-10-15;6;0
2014-10-14;5;0
2014-10-13;5;0
2014-10-12;1;0
2014-10-11;1;0
2014-10-10;1;0
2014-10-09;12;0
2014-10-08;13;0
2014-10-07;20;0
2014-10-06;31;0
2014-10-05;35;0
2014-10-04;23;0
2014-10-03;31;0
2014-10-02;32;0
2014-10-01;18;0
2014-09-30;38;0
2014-09-29;38;0
2014-09-28;33;0
2014-09-27;27;0
2014-09-26;35;0
2014-09-25;31;0
2014-09-24;23;0
2014-09-23;38;0
2014-09-22;38;0
2014-09-21;38;0
2014-09-20;19;0
2014-09-19;25;0
2014-09-18;29;0
2014-09-17;23;0
2014-09-16;24;0
2014-09-15;24;0
2014-09-14;29;0
2014-09-13;11;0
2014-09-12;30;0
2014-09-11;14;0
2014-09-10;23;0
2014-09-09;23;0
2014-09-08;15;0
2014-09-07;1;0
2014-09-06;1;0
2014-09-04;1;0
2014-09-03;3;0
2014-09-02;2;0
2014-08-31;1;0
2014-08-29;1;0
2014-08-21;1;0
2014-08-20;1;0
2014-08-19;1;0
2014-08-18;4;0
2014-08-17;1;0
2014-08-14;1;0
2014-08-11;2;0
2014-08-09;1;0
2014-08-07;1;0
2014-08-04;2;0
2014-08-03;1;0
2014-07-31;9;1
2014-07-30;4;0
2014-07-29;6;0
2014-07-28;1;0
2014-07-27;1;0
2014-07-26;6;0
2014-07-25;3;0
2014-07-24;3;0
2014-07-23;3;0
2014-07-22;4;0
2014-07-20;4;0
2014-07-19;4;0
2014-07-18;2;0
2014-07-17;1;0
2014-07-16;1;0
2014-07-15;6;0
2014-07-14;6;0
2014-07-13;1;0
2014-07-12;5;0
2014-07-11;3;0
2014-07-10;1;0
2014-07-09;5;0
2014-07-08;1;0
2014-07-07;3;0
2014-07-06;3;0
2014-07-05;3;0
2014-07-04;3;0
2014-07-03;2;0
2014-07-02;2;0
2014-06-30;3;0
2014-06-29;3;0
2014-06-28;4;0
2014-06-27;2;0
2014-06-26;7;0
2014-06-25;2;0
2014-06-24;1;0
2014-06-23;5;0
2014-06-22;3;0
2014-06-20;2;0
2014-06-19;2;0
2014-06-18;8;0
2014-06-17;5;0
2014-06-16;1;0
2014-06-15;4;0
2014-06-14;2;0
2014-06-13;3;0
2014-06-12;4;0
2014-06-11;8;0
2014-06-10;3;0
2014-06-09;1;0
2014-06-08;2;0
2014-06-07;1;0
2014-06-06;3;0
2014-06-05;7;0
2014-06-04;5;0
2014-06-03;9;0
2014-06-02;7;0
2014-06-01;7;0
2014-05-31;10;0
2014-05-30;7;0
2014-05-29;6;0
2014-05-28;5;0
2014-05-27;6;0
2014-05-26;3;0
2014-05-25;1;0
2014-05-24;4;0
2014-05-23;1;0
2014-05-22;2;0
2014-05-21;9;0
2014-05-20;6;0
2014-05-19;8;0
2014-05-18;4;0
2014-05-17;2;0
2014-05-16;11;0
2014-05-15;7;0
2014-05-14;7;0
2014-05-13;6;0
2014-05-12;13;0
2014-05-11;2;0
2014-05-10;7;0
2014-05-09;1;0
2014-05-08;1;0
2014-05-06;4;0
2014-05-05;8;0
2014-05-04;4;0
2014-05-03;3;0
2014-05-02;3;0
2014-05-01;2;0
2014-04-29;3;0
2014-04-28;3;0
2014-04-25;1;0
2014-04-24;2;0
2014-04-23;4;0
2014-04-22;4;0
2014-04-21;2;0
2014-04-18;1;0
2014-04-17;2;0
2014-04-16;3;0
2014-04-11;3;0
2014-04-10;8;0
2014-04-09;10;0
2014-04-08;2;0
2014-04-07;14;0
2014-04-06;9;0
2014-04-05;3;0
2014-04-04;5;0
2014-04-03;3;0
2014-04-02;4;0
2014-04-01;1;0
2014-03-30;1;0
2014-03-29;2;0
2014-03-28;1;0
2014-03-27;2;0
2014-03-26;1;0
2014-03-24;1;0
2014-03-22;2;0
2014-03-21;3;0
2014-03-20;2;0
2014-03-19;9;0
2014-03-18;4;0
2014-03-17;9;0
2014-03-16;23;0
2014-03-15;21;0
2014-03-14;24;0
2014-03-13;1;0
